This is the latest recevied weather packets stored in our database for station/object M0TJX-1. If no packets are shown the sender has not sent any weather packets the latest 10 day(s).
| Time | Temp. | Humidity | Pressure | Rain* | Wind** | Luminosity | Snow |
|---|---|---|---|---|---|---|---|
| 1788137717 | 12.78° C | 93% | 1004.8 hPa | 0.76 mm | - | - | - |
| 1788136817 | 12.78° C | 92% | 1004.7 hPa | 0.51 mm | - | - | - |
| 1788135917 | 13.89° C | 90% | 1004.9 hPa | 0.25 mm | - | - | - |
| 1788135017 | 14.44° C | 92% | 1004.4 hPa | 0 mm | - | - | - |
| 1788134117 | 14.44° C | 92% | 1003.8 hPa | 0 mm | - | - | - |
| 1788133217 | 15° C | 92% | 1003.9 hPa | 0 mm | - | - | - |
| 1788132317 | 15° C | 92% | 1004 hPa | 0 mm | - | - | - |
| 1788131417 | 15° C | 92% | 1003.8 hPa | 0.25 mm | - | - | - |
| 1788130517 | 15° C | 92% | 1003.7 hPa | 0.25 mm | - | - | - |
| 1788129617 | 15.56° C | 92% | 1003.9 hPa | 0.25 mm | - | - | - |
| 1788128717 | 15.56° C | 92% | 1004.1 hPa | 0.51 mm | - | - | - |
| 1788127817 | 15.56° C | 92% | 1004 hPa | 0.25 mm | - | - | - |
| 1788126917 | 15° C | 93% | 1004.2 hPa | 0.25 mm | - | - | - |
| 1788125117 | 15° C | 92% | 1004.2 hPa | 0.25 mm | - | - | - |
| 1788124217 | 15° C | 92% | 1004.5 hPa | 0.76 mm | - | - | - |
| 1788123317 | 15° C | 91% | 1004.7 hPa | 0.76 mm | - | - | - |
| 1788122417 | 15° C | 89% | 1004.9 hPa | 0.76 mm | - | - | - |
| 1788121517 | 15.56° C | 89% | 1004.8 hPa | 0.51 mm | - | - | - |
| 1788120617 | 16.11° C | 89% | 1005.2 hPa | 0 mm | - | - | - |
| 1788119718 | 16.11° C | 89% | 1005.1 hPa | 0 mm | - | - | - |
| 1788118818 | 16.11° C | 89% | 1005.1 hPa | 0 mm | - | - | - |
| 1788117918 | 16.11° C | 88% | 1005.2 hPa | 0.25 mm | - | - | - |
| 1788117018 | 16.11° C | 89% | 1004.8 hPa | 0.51 mm | - | - | - |
| 1788116118 | 16.67° C | 89% | 1004.4 hPa | 0.51 mm | - | - | - |
| 1788115218 | 16.67° C | 90% | 1004.4 hPa | 0.51 mm | - | - | - |
* Rain latest hour (hover to see other rain measurements)
** Current wind speed in m/s (hover to see current wind gust speed)